UNIBRITE (39092 NORAD) Tracking and Keplerian Element Data

This shows tracking and keplerian element data for the satellite.

Feedback or suggestion? Click here.




ElementValue
Catalog39092
NameUNIBRITE
Epoch Orbit26439
Epoch Day74.56540138
Epoch Year2018
RAAN281.0894
Inclination98.5289
Eccentricity0.0008757
Argument of Perigee210.5045
Mean Anonmoly149.5632
Mean Motion14.34937333
Decay Rate2.4E-07
L11 39092U 13009G 18074.56540138 .00000024 00000-0 23873-4 0 9991
L22 39092 98.5289 281.0894 0008757 210.5045 149.5632 14.34937333264396



Live tracking and technical data element details for UNIBRITE (NORAD 39092). UNIBRITE can be tracked NOW for your location showing map with azimuth and elevation plus other details from your city location.







IsCatalogInMostPopularTable: catalog: 39092, numindb: 564
Update: records affected: 1



GetName: 39092 UNIBRITE

Hit Count: updated at: Thu, 15 May 2025 10:35:19 GMT